GW6041 Weather Reports


time (UTC)temp
F
wind
direction
speed
knots
gust
knots
rain 1hr
in
rain 24hr
in
rain mn
in
humidity
%
barometer
mb
20260506035218 33 85 2.6 5.2 0.00 0.00 0.00 96 1005.5
20260506034714 33 68 4.3 5.2 0.00 0.00 0.00 96 1005.6
20260506034212 33 79 4.3 5.2 0.00 0.00 0.00 96 1005.5
20260506033709 33 78 3.5 4.3 0.00 0.00 0.00 96 1005.6
20260506033206 33 78 3.5 4.3 0.00 0.00 0.00 96 1005.4
20260506032703 33 73 5.2 6.1 0.00 0.00 0.00 96 1005.4
20260506032200 33 68 5.2 6.1 0.00 0.00 0.00 96 1005.4
20260506031657 33 66 6.1 6.1 0.00 0.00 0.00 96 1005.3
20260506031154 33 64 5.2 6.1 0.00 0.00 0.00 96 1005.2
20260506030652 34 63 5.2 5.2 0.00 0.00 0.00 96 1005.4
20260506030149 34 55 4.3 4.3 0.00 0.00 0.00 96 1005.2
20260506025646 34 72 2.6 2.6 0.00 0.00 0.00 96 1004.9
20260506025142 34 69 2.6 2.6 0.00 0.00 0.00 96 1005.1
20260506024640 34 84 2.6 3.5 0.00 0.00 0.00 96 1005.0
20260506024136 34 92 3.5 3.5 0.00 0.00 0.00 96 1005.0
20260506023632 34 82 2.6 3.5 0.00 0.00 0.00 96 1005.2
20260506023129 34 73 2.6 3.5 0.00 0.00 0.00 96 1005.3
20260506022627 34 79 3.5 3.5 0.00 0.00 0.00 96 1005.2
20260506022124 34 76 3.5 4.3 0.00 0.00 0.00 96 1005.0
20260506021622 34 77 3.5 4.3 0.00 0.00 0.00 96 1004.9
20260506021119 34 79 2.6 3.5 0.00 0.00 0.00 96 1005.0
20260506020616 34 69 3.5 3.5 0.00 0.00 0.00 95 1005.0
20260506020113 34 72 3.5 3.5 0.00 0.00 0.00 95 1004.8
20260506015611 35 69 3.5 3.5 0.00 0.00 0.00 95 1004.7
20260506015107 35 76 3.5 5.2 0.00 0.00 0.00 95 1004.8
20260506014605 35 77 4.3 4.3 0.00 0.00 0.00 95 1004.9
20260506014100 35 71 4.3 5.2 0.00 0.00 0.00 95 1004.6
20260506013559 35 56 5.2 5.2 0.00 0.00 0.00 95 1004.8
20260506013055 35 54 4.3 5.2 0.00 0.00 0.00 95 1004.8
20260506012551 35 71 3.5 4.3 0.00 0.00 0.00 94 1004.7
20260506012048 35 64 3.5 4.3 0.00 0.00 0.00 94 1004.7
20260506011546 35 84 3.5 3.5 0.00 0.00 0.00 94 1004.5
20260506011042 35 85 2.6 3.5 0.00 0.00 0.00 94 1004.6
20260506010542 35 55 2.6 3.5 0.00 0.00 0.00 94 1004.5
20260506010038 35 69 2.6 2.6 0.00 0.00 0.00 94 1004.5
20260506005535 35 92 2.6 3.5 0.00 0.00 0.00 94 1004.7
20260506005031 35 63 1.7 2.6 0.00 0.00 0.00 94 1004.4
20260506004528 35 65 3.5 4.3 0.00 0.00 0.00 94 1004.6
20260506004025 35 60 3.5 3.5 0.00 0.00 0.00 94 1004.6
20260506003521 35 43 2.6 2.6 0.00 0.00 0.00 94 1004.3
20260506003017 35 45 0.0 2.6 0.00 0.00 0.00 94 1004.5
20260506002514 35 78 1.7 2.6 0.00 0.00 0.00 94 1004.5
20260506002009 35 83 1.7 2.6 0.00 0.00 0.00 94 1004.2
20260506001506 35 74 1.7 3.5 0.00 0.00 0.00 94 1004.5
20260506001004 35 84 3.5 3.5 0.00 0.00 0.00 94 1004.5
20260506000501 35 64 3.5 5.2 0.00 0.00 0.00 94 1004.2
20260505235957 35 71 3.5 3.5 0.00 0.00 0.00 94 1004.3
20260505235456 35 71 3.5 3.5 0.00 0.00 0.00 94 1004.3
20260505234952 35 77 3.5 3.5 0.00 0.00 0.00 94 1004.0
20260505234450 35 59 3.5 3.5 0.00 0.00 0.00 94 1004.2
20260505233946 35 74 2.6 3.5 0.00 0.00 0.00 93 1004.1
20260505233444 35 69 4.3 5.2 0.00 0.00 0.00 93 1003.9
20260505232941 35 74 3.5 5.2 0.00 0.00 0.00 93 1004.1
20260505232439 35 68 5.2 6.1 0.00 0.00 0.00 93 1004.0
20260505231936 35 75 4.3 6.1 0.00 0.00 0.00 93 1004.0
20260505231433 35 70 3.5 5.2 0.00 0.00 0.00 92 1004.1
20260505230931 36 73 3.5 4.3 0.00 0.00 0.00 92 1003.9
20260505230429 36 77 4.3 5.2 0.00 0.00 0.00 92 1003.9
20260505225925 36 71 5.2 6.1 0.00 0.00 0.00 92 1004.1
20260505225422 36 64 5.2 6.1 0.00 0.00 0.00 92 1003.9
20260505224917 36 81 2.6 4.3 0.00 0.00 0.00 92 1004.0
20260505224415 36 71 5.2 5.2 0.00 0.00 0.00 91 1003.9
20260505223912 37 78 3.5 5.2 0.00 0.00 0.00 91 1003.9
20260505223409 37 80 3.5 5.2 0.00 0.00 0.00 90 1003.9
20260505222905 37 70 3.5 5.2 0.00 0.00 0.00 89 1003.9
20260505222401 37 70 5.2 6.1 0.00 0.00 0.00 88 1003.8
20260505221858 37 52 3.5 3.5 0.00 0.00 0.00 87 1003.9
20260505221355 38 47 3.5 4.3 0.00 0.00 0.00 85 1003.7
20260505220852 38 38 1.7 2.6 0.00 0.00 0.00 83 1003.5
20260505220349 38 20 3.5 5.2 0.00 0.00 0.00 83 1003.7
20260505215847 38 77 1.7 2.6 0.00 0.01 0.01 82 1003.7
20260505215345 38 106 2.6 3.5 0.00 0.01 0.01 82 1003.6
20260505214843 38 96 1.7 3.5 0.00 0.01 0.01 82 1003.6
20260505214340 38 269 0.0 1.7 0.00 0.01 0.01 81 1003.7
20260505213837 39 262 0.0 5.2 0.00 0.01 0.01 82 1003.5
20260505213335 39 94 1.7 1.7 0.00 0.01 0.01 81 1003.6
20260505212830 39 84 0.9 5.2 0.00 0.01 0.01 81 1003.4
20260505212328 39 112 2.6 2.6 0.00 0.01 0.01 81 1003.5
20260505211824 39 112 0.0 2.6 0.00 0.01 0.01 81 1003.4
20260505211322 39 115 3.5 4.3 0.00 0.01 0.01 81 1003.4
20260505210818 39 117 2.6 3.5 0.00 0.01 0.01 80 1003.4
20260505210315 39 93 1.7 5.2 0.00 0.01 0.01 78 1003.3
20260505205812 39 121 2.6 4.3 0.00 0.01 0.01 78 1003.4
20260505205310 39 341 0.9 3.5 0.00 0.01 0.01 78 1003.3
20260505204806 39 102 4.3 4.3 0.00 0.01 0.01 78 1003.2
20260505204304 39 91 2.6 4.3 0.00 0.01 0.01 78 1003.1
20260505203801 39 95 2.6 3.5 0.00 0.01 0.01 78 1003.0
20260505203258 39 104 2.6 4.3 0.00 0.01 0.01 78 1003.0
20260505202754 39 91 4.3 6.1 0.00 0.01 0.01 78 1003.1
20260505202250 39 107 3.5 5.2 0.00 0.01 0.01 78 1002.9
20260505201747 39 89 3.5 4.3 0.00 0.01 0.01 78 1002.9
20260505201244 39 95 4.3 4.3 0.00 0.01 0.01 77 1002.9
20260505200743 39 89 3.5 5.2 0.00 0.01 0.01 77 1002.8
20260505200240 39 100 2.6 5.2 0.00 0.01 0.01 76 1002.8
20260505195735 39 78 1.7 6.1 0.00 0.01 0.01 76 1002.9
20260505195233 40 93 4.3 5.2 0.00 0.01 0.01 75 1002.8
20260505194730 40 89 2.6 4.3 0.00 0.01 0.01 74 1002.8
20260505194226 40 62 1.7 3.5 0.00 0.01 0.01 73 1003.0
20260505193722 40 83 1.7 5.2 0.00 0.01 0.01 73 1002.8
20260505193219 40 80 1.7 2.6 0.00 0.01 0.01 73 1002.8
20260505192718 40 123 4.3 5.2 0.00 0.01 0.01 72 1002.7
20260505192215 40 144 1.7 2.6 0.00 0.01 0.01 71 1002.7
20260505191713 40 139 2.6 5.2 0.00 0.01 0.01 71 1002.8
20260505191211 40 105 3.5 4.3 0.00 0.01 0.01 71 1002.6
20260505190708 41 125 2.6 5.2 0.00 0.01 0.01 71 1002.8
20260505190207 41 36 0.0 5.2 0.00 0.01 0.01 71 1002.7
20260505185704 41 80 2.6 3.5 0.00 0.01 0.01 71 1002.6
20260505185200 41 118 4.3 4.3 0.00 0.01 0.01 71 1002.6
20260505184657 41 94 2.6 5.2 0.00 0.01 0.01 70 1002.5
20260505184154 41 142 2.6 4.3 0.00 0.01 0.01 70 1002.5
20260505183651 41 52 2.6 4.3 0.00 0.01 0.01 69 1002.5
20260505183148 41 102 2.6 3.5 0.00 0.01 0.01 67 1002.4
20260505182645 41 91 3.5 5.2 0.00 0.01 0.01 66 1002.3
20260505182142 41 62 4.3 4.3 0.00 0.01 0.01 67 1002.3
20260505181638 41 54 1.7 3.5 0.00 0.01 0.01 67 1002.5
20260505181135 41 346 2.6 2.6 0.00 0.01 0.01 68 1002.2
20260505180631 41 103 0.0 3.5 0.00 0.01 0.01 71 1002.2
20260505180129 42 123 3.5 6.1 0.00 0.01 0.01 66 1002.3
20260505175625 42 125 2.6 4.3 0.00 0.01 0.01 66 1002.2
20260505175122 42 144 5.2 5.2 0.00 0.01 0.01 61 1002.2
20260505174618 43 103 2.6 2.6 0.00 0.01 0.01 58 1002.2
20260505174114 43 122 0.0 2.6 0.00 0.01 0.01 59 1002.1
20260505173611 43 262 0.0 2.6 0.00 0.01 0.01 58 1002.0
20260505173108 43 24 0.0 2.6 0.00 0.01 0.01 61 1002.0
20260505172606 43 282 1.7 2.6 0.00 0.01 0.01 60 1002.0
20260505172102 43 277 0.0 2.6 0.00 0.01 0.01 62 1002.1
20260505171556 43 258 1.7 4.3 0.00 0.01 0.01 61 1001.9
20260505171054 43 278 2.6 5.2 0.00 0.01 0.01 64 1002.0
20260505170551 43 258 4.3 6.1 0.00 0.01 0.01 62 1002.0
20260505170047 43 269 4.3 6.1 0.00 0.01 0.01 62 1002.0
20260505165542 43 305 4.3 5.2 0.00 0.01 0.01 59 1001.9
20260505165038 44 267 3.5 5.2 0.00 0.01 0.01 60 1001.9
20260505164534 44 267 7.0 7.8 0.00 0.01 0.01 60 1001.9
20260505164032 44 289 5.2 7.8 0.00 0.01 0.01 60 1001.7
20260505163531 44 290 7.0 7.8 0.00 0.01 0.01 61 1001.5
20260505163027 44 279 6.1 8.7 0.00 0.01 0.01 60 1001.7
20260505162520 44 286 8.7 8.7 0.00 0.01 0.01 60 1001.7
20260505162017 44 258 5.2 7.8 0.00 0.01 0.01 60 1001.8
20260505161514 44 286 4.3 7.8 0.00 0.01 0.01 62 1001.5
20260505161011 44 264 6.1 7.0 0.00 0.01 0.01 61 1001.7
20260505160509 44 274 4.3 8.7 0.00 0.01 0.01 60 1001.6
20260505152945 44 289 8.7 8.7 0.00 0.01 0.01 64 1001.5
20260505152443 44 290 6.1 7.8 0.00 0.01 0.01 64 1001.4
20260505151943 44 278 6.1 7.0 0.00 0.01 0.01 64 1001.6
20260505151439 44 294 7.0 7.8 0.00 0.01 0.01 61 1001.3
20260505150937 44 288 6.1 7.8 0.00 0.01 0.01 60 1001.4
20260505150433 44 279 5.2 8.7 0.00 0.01 0.01 62 1001.3
20260505140404 44 282 5.2 7.0 0.00 0.01 0.01 61 1000.9
20260505124817 44 263 7.0 10.4 0.00 0.01 0.01 67 1000.3
20260505124314 44 267 6.1 10.4 0.00 0.01 0.01 68 1000.6
20260505123810 44 274 7.8 8.7 0.00 0.01 0.01 67 1000.6
20260505123306 44 270 7.0 10.4 0.00 0.01 0.01 67 1000.2
20260505122803 45 297 7.0 7.8 0.00 0.01 0.01 66 1000.4
20260505122300 44 286 6.1 9.6 0.00 0.01 0.01 69 1000.3
20260505121756 44 294 6.1 7.8 0.00 0.01 0.01 70 1000.3
20260505121253 43 289 5.2 7.0 0.00 0.01 0.01 69 1000.4
20260505120750 43 282 4.3 5.2 0.00 0.01 0.01 70 1000.2
20260505120246 43 262 7.0 9.6 0.00 0.01 0.01 71 1000.4
20260505115745 42 275 6.1 7.8 0.00 0.01 0.01 73 1000.2
20260505115242 42 295 5.2 6.1 0.00 0.01 0.01 72 1000.1
20260505114740 42 316 3.5 6.1 0.00 0.01 0.01 73 1000.2
20260505114235 42 306 1.7 3.5 0.00 0.01 0.01 73 999.9
20260505113732 42 57 1.7 6.1 0.00 0.01 0.01 69 1000.1
20260505113229 42 337 2.6 4.3 0.00 0.01 0.01 73 1000.1
20260505112725 42 327 4.3 5.2 0.00 0.01 0.01 75 999.9
20260505112223 42 283 2.6 5.2 0.00 0.01 0.01 72 1000.0
20260505111723 43 306 2.6 4.3 0.00 0.01 0.01 73 1000.0
20260505111219 42 320 1.7 4.3 0.00 0.01 0.01 75 999.9
20260505110715 42 295 2.6 5.2 0.00 0.01 0.01 73 999.8
20260505110213 42 296 3.5 4.3 0.00 0.01 0.01 76 999.9
20260505102148 42 289 1.7 2.6 0.00 0.01 0.01 74 999.7
20260505101647 42 257 0.0 2.6 0.00 0.01 0.01 75 999.6
20260505101143 42 21 0.0 1.7 0.00 0.01 0.01 72 999.5
20260505100639 43 308 1.7 2.6 0.00 0.01 0.01 75 999.5
20260505100136 42 105 0.0 1.7 0.00 0.01 0.01 76 999.5
20260505095632 42 244 0.0 2.6 0.00 0.01 0.01 74 999.5
20260505095129 43 266 0.9 2.6 0.00 0.01 0.01 74 999.3
20260505094625 42 81 1.7 1.7 0.00 0.01 0.01 78 999.3
20260505094122 41 2 1.7 1.7 0.00 0.01 0.01 78 999.4
20260505093618 41 12 0.0 1.7 0.00 0.01 0.01 79 999.1
20260505093115 41 295 0.0 1.7 0.00 0.01 0.01 79 999.2
20260505092612 41 89 1.7 2.6 0.00 0.01 0.01 79 999.2
20260505092112 40 63 1.7 2.6 0.00 0.01 0.01 80 999.3
20260505091607 40 220 0.9 1.7 0.00 0.01 0.01 81 999.4
20260505091106 41 302 0.0 1.7 0.00 0.01 0.01 84 999.3
20260505090603 40 111 0.0 2.6 0.00 0.01 0.01 83 999.2
20260505090101 40 26 0.0 1.7 0.00 0.01 0.01 84 999.3
20260505085558 40 321 0.0 2.6 0.00 0.01 0.01 83 999.1
20260505085057 40 6 1.7 2.6 0.00 0.01 0.01 83 999.2
20260505084554 39 54 1.7 4.3 0.00 0.01 0.01 85 999.2
20260505084052 39 26 2.6 3.5 0.00 0.01 0.01 88 999.0
20260505083549 39 37 2.6 2.6 0.00 0.01 0.01 89 999.2
20260505083046 38 345 0.0 2.6 0.00 0.01 0.01 89 999.0
20260505082541 38 14 1.7 2.6 0.00 0.01 0.01 90 999.2
20260505082039 38 313 1.7 1.7 0.00 0.01 0.01 91 999.0
20260505081535 38 332 2.6 2.6 0.00 0.01 0.01 91 999.0
20260505081032 38 332 1.7 3.5 0.00 0.01 0.01 91 999.0
20260505080528 38 330 0.0 1.7 0.00 0.01 0.01 92 998.9
20260505080025 37 332 1.7 2.6 0.00 0.01 0.01 92 999.0
20260505075521 37 279 0.0 1.7 0.00 0.01 0.01 92 998.9
20260505075018 37 263 0.9 1.7 0.00 0.01 0.01 93 998.8
20260505074515 37 121 1.7 2.6 0.00 0.01 0.01 94 998.8
20260505074012 37 100 0.0 2.6 0.00 0.01 0.01 95 998.8
20260505073510 36 107 1.7 1.7 0.00 0.01 0.01 94 998.7
20260505073008 36 99 1.7 2.6 0.00 0.01 0.01 95 998.8
20260505072503 36 31 0.0 1.7 0.00 0.01 0.01 95 998.8
20260505071959 36 66 1.7 2.6 0.00 0.01 0.01 95 998.8
20260505071455 36 57 0.9 1.7 0.00 0.01 0.01 95 998.7
20260505070953 35 79 0.9 1.7 0.00 0.01 0.01 95 998.7
20260505070450 35 66 2.6 2.6 0.00 0.01 0.01 95 998.9
20260505065946 35 59 2.6 2.6 0.00 0.01 0.01 96 998.7
20260505065442 35 40 1.7 3.5 0.00 0.01 0.01 96 998.7
20260505064939 35 88 0.9 1.7 0.00 0.01 0.01 96 998.7
20260505064436 35 72 1.7 2.6 0.00 0.01 0.01 96 998.6
20260505063934 34 121 1.7 1.7 0.00 0.01 0.01 96 998.5
20260505063431 34 55 0.0 2.6 0.00 0.01 0.01 96 998.5
20260505062927 34 54 1.7 2.6 0.00 0.01 0.01 95 998.6
20260505062425 34 72 2.6 3.5 0.00 0.01 0.01 95 998.6
20260505061921 34 51 2.6 2.6 0.00 0.01 0.01 95 998.5
20260505061419 34 61 1.7 2.6 0.00 0.01 0.01 95 998.5
20260505060917 34 45 4.3 4.3 0.00 0.01 0.01 95 998.6
20260505060413 34 102 1.7 2.6 0.00 0.01 0.01 95 998.5
20260505055909 34 57 2.6 2.6 0.00 0.01 0.01 95 998.4
20260505055406 34 77 1.7 2.6 0.00 0.01 0.01 95 998.5
20260505054903 34 83 1.7 2.6 0.00 0.01 0.01 95 998.5
20260505054400 34 46 3.5 3.5 0.00 0.01 0.01 95 998.5
20260505053858 34 43 3.5 3.5 0.02 0.01 0.01 95 998.5
20260505053355 34 87 2.6 3.5 0.02 0.01 0.01 94 998.3
20260505052852 34 64 3.5 4.3 0.00 0.01 0.01 94 998.2
20260505052348 34 61 2.6 2.6 0.00 0.01 0.01 94 998.4
20260505051846 34 47 3.5 3.5 0.00 0.01 0.01 94 998.3
20260505051343 34 60 3.5 3.5 0.00 0.01 0.01 94 998.2
20260505050841 34 61 3.5 4.3 0.00 0.01 0.01 93 998.2
20260505050339 35 61 4.3 4.3 0.00 0.01 0.01 93 998.1
20260505041306 35 80 1.7 1.7 0.00 0.00 0.00 95 997.9
20260505040803 35 80 1.7 2.6 0.00 0.00 0.00 95 998.0
20260505040301 35 67 2.6 2.6 0.00 0.00 0.00 96 998.1
20260505035758 35 50 0.0 1.7 0.02 0.00 0.00 96 998.0